sat.trackr.live / text

‹ back to catalog

CSC-2

NORAD 58021 · 2023-155F

PAYLOAD ACTIVE UNKNOWN

§ Identity

Operator
Country
NETH
Launch date
2023-10-09
Launch site
FRGUI
Launch vehicle
Mass (kg)
RCS (m²)

External: N2YO · Heavens-Above · Gunter

§ Orbital elements

Epoch: 2026-05-25T04:23:31.617312Z

Period
94.65 min
Inclination
97.5427°
Eccentricity
0.0003650
Mean motion
15.21323534 rev/d
Perigee alt
499.3 km
Apogee alt
504.4 km
Semi-major
6,880.0 km
B*
3.9380e-4
RAAN
221.7974°
Arg perigee
329.8212°
Mean anomaly
30.2813°
Rev number
14,468

§ Raw data

CSC-21 58021U 23155F   26145.18300483  .00008749  00000+0  39380-3 0  99902 58021  97.5427 221.7974 0003650 329.8212  30.2813 15.21323534144684

JSON: /api/v1/satellites/58021 · /tle

For live sub-satellite position, see the globe view (requires WebGL).

§ Visibility from observer

Set your observer location to see the next 7 days of passes ≥ 10°. The values pass through the URL so the page stays shareable.

No JS? Fill the form by hand. The geolocation button needs JavaScript.

§ Radio — SatNOGS DB

ModeDescriptionDownlinkUplink
FM Mode S 2.245 GHz
BPSK Mode U 401.250 MHz

2 transmitters · refreshed weekly from db.satnogs.org